Wind_Speed
21 19 20 21 23 24 25 25 26 27 29 29 29 29 28 28 28 27 26 26 26 25 23 25 25 23 23 25 24 23 20 15 11 9 9 12 15 18 20 21 23 24 26 28 30 32 35 37 35 33 32 30 29 29 29 28 28 26 24 24 23 22 21 20 20 19 17 15 14 14 15 17 18 20 21 24 28 33 39 45 50 54 55 56 55 54
27 27 28 29 29 30 31 30 30 32 33 32 31 30 29 28 27 26 25 25 26 25 23 25 25 24 25 25 24 24 23 20 17 14 13 15 18 21 23 24 26 27 29 31 33 36 38 41 41 38 37 37 35 31 31 31 31 29 26 25 25 25 23 21 20 21 20 20 19 16 15 16 15 16 18 19 22 25 29 33 39 44 49 53 55 55
36 35 35 34 33 33 34 33 31 32 32 31 29 27 28 29 28 26 25 24 25 23 22 22 22 23 25 24 24 24 22 22 21 20 19 20 22 23 24 26 28 29 31 33 35 37 39 42 44 42 41 42 41 37 35 35 34 32 29 27 27 26 25 25 25 25 26 26 25 23 21 19 16 13 14 15 18 20 23 26 30 34 39 45 49 53
39 38 36 36 34 32 33 33 30 30 29 28 27 25 25 28 27 25 23 23 22 21 20 20 20 20 20 20 21 22 22 22 22 22 22 22 23 24 25 26 28 29 31 33 34 36 38 41 43 44 43 44 44 42 40 39 39 38 35 33 33 32 30 29 29 28 31 33 31 29 28 26 23 18 14 12 12 14 17 20 23 27 31 35 39 44
39 37 35 35 33 31 31 33 30 28 27 27 27 25 24 26 25 22 20 19 19 18 18 19 21 21 19 18 18 20 22 22 22 22 22 22 23 24 25 25 27 29 30 32 33 35 37 39 41 44 44 44 44 45 44 42 43 43 42 40 39 39 38 37 36 33 33 36 37 36 35 34 32 28 23 19 14 11 11 13 16 20 24 28 31 35
38 35 33 31 31 29 29 31 29 26 25 25 24 23 22 22 21 19 17 18 19 18 17 17 19 20 18 17 18 20 21 20 20 21 21 22 22 23 23 25 26 27 29 30 32 34 36 38 39 41 42 43 44 44 45 46 46 46 46 45 45 45 45 44 44 41 39 40 42 41 40 38 37 36 34 31 27 23 18 13 10 11 15 20 24 29
35 33 32 29 28 27 27 28 27 26 24 22 22 21 20 20 19 18 17 18 18 17 16 16 16 15 15 16 17 18 17 18 19 19 20 20 20 22 23 24 25 26 27 29 31 32 34 36 37 39 40 41 43 44 45 46 47 47 48 48 49 49 49 48 48 48 47 47 47 46 45 43 42 41 40 39 37 35 31 26 21 15 10 11 14 18
31 30 30 28 27 25 25 24 23 24 22 19 19 19 18 18 17 16 17 16 15 14 13 13 14 14 14 15 15 15 14 16 18 18 18 18 19 20 22 23 24 24 26 27 29 31 32 34 35 37 38 40 41 42 43 45 46 47 48 49 50 51 51 51 52 52 52 52 51 50 49 48 47 46 45 44 43 41 39 36 33 28 22 16 11 9
28 27 27 27 27 23 22 22 21 21 20 18 17 17 16 16 15 15 15 14 12 12 11 12 13 13 13 13 13 12 13 14 15 16 17 17 18 19 20 21 22 23 24 25 27 29 31 32 33 35 36 38 39 40 41 43 44 46 47 48 50 51 51 52 53 53 53 54 54 54 53 52 51 50 49 48 47 45 43 41 39 37 33 29 23 17
26 26 26 26 25 22 21 22 21 20 19 18 17 17 17 16 16 15 14 13 12 12 12 12 12 11 10 9 10 10 12 13 14 16 17 18 18 18 19 20 21 22 23 24 26 28 29 30 32 33 34 36 37 39 40 41 43 44 46 47 48 49 50 51 52 53 53 54 54 55 55 55 55 54 53 52 51 50 48 46 44 42 39 37 33 29
25 25 25 24 23 21 21 21 20 20 19 18 18 19 18 17 16 16 14 13 13 13 14 15 13 12 9 8 9 10 12 13 14 15 17 18 18 19 19 19 20 20 21 23 25 26 27 28 30 31 33 35 36 38 39 40 42 43 44 46 47 48 49 50 51 52 52 53 53 54 55 55 55 56 56 56 55 54 52 50 48 46 44 42 39 36
23 23 22 21 20 19 19 19 19 19 19 18 18 19 18 17 16 16 15 13 14 14 16 16 15 13 11 10 11 12 13 13 14 15 16 17 18 18 18 18 18 18 19 20 22 24 26 27 29 30 32 33 35 36 38 39 40 41 43 44 45 46 47 48 49 50 51 51 51 51 53 53 54 55 55 55 55 55 54 53 52 50 48 46 43 40
23 22 21 20 19 17 17 17 17 17 17 16 17 18 17 16 16 16 15 14 15 16 17 16 14 13 13 13 13 13 13 14 15 15 16 17 18 18 18 17 18 18 18 18 20 22 24 26 27 29 30 32 33 34 36 37 38 39 41 42 43 44 45 46 47 48 49 49 49 49 51 52 52 53 53 53 54 54 53 53 53 52 51 50 48 45
21 21 20 19 18 17 17 16 16 16 15 15 15 15 15 16 16 15 15 15 16 16 16 16 15 15 15 14 14 15 15 15 15 16 16 17 18 18 18 18 18 18 18 18 19 21 23 24 25 27 28 30 31 32 34 35 36 37 39 40 41 42 43 44 45 45 46 47 48 48 48 49 50 50 51 51 52 52 53 53 53 53 52 51 50 48
19 19 18 17 17 17 16 16 15 14 14 13 13 13 14 14 14 14 15 15 15 15 15 15 15 15 14 13 14 15 15 15 15 16 16 17 17 18 18 18 18 18 17 17 18 20 21 22 23 25 26 28 29 30 32 33 34 35 37 38 39 40 40 41 42 43 44 44 46 46 47 48 48 49 49 50 50 51 51 52 52 52 52 51 51 50
16 15 15 15 15 15 15 14 14 13 12 12 11 12 12 12 12 13 13 13 14 14 13 13 13 12 12 12 13 13 14 14 14 15 15 16 16 17 17 17 16 16 16 17 18 19 20 21 22 23 24 26 27 28 30 31 33 34 35 36 37 38 38 39 40 41 42 43 44 45 46 47 47 48 48 48 49 49 50 50 51 51 51 51 51 51
12 11 12 12 12 12 12 12 12 12 11 10 10 10 10 10 10 10 11 12 12 12 12 12 12 11 11 11 12 13 13 13 13 13 14 14 15 16 16 16 16 16 16 16 17 17 18 19 20 21 22 24 25 26 28 29 31 32 33 34 35 36 37 38 39 40 41 42 43 44 45 45 46 46 47 47 47 47 48 48 48 49 49 50 50 50
8 8 9 10 10 10 10 10 10 10 10 10 10 9 9 9 9 9 10 11 11 11 11 12 11 11 11 11 12 12 12 12 13 13 13 13 14 14 14 15 15 15 15 15 15 16 16 17 18 20 21 22 23 24 25 27 28 29 30 32 33 34 35 36 37 38 39 41 42 42 43 44 44 45 45 45 46 46 46 46 47 47 48 48 49 49
7 7 8 8 8 9 8 9 9 9 10 10 11 10 10 9 9 9 10 11 11 12 12 13 12 12 12 12 12 12 12 13 13 14 14 14 14 14 14 14 14 14 14 14 14 14 15 16 17 18 19 20 21 22 23 25 26 27 28 29 30 31 33 34 35 36 37 39 39 40 41 42 43 43 44 44 45 46 46 46 46 46 46 47 47 48
7 7 8 8 9 9 9 9 9 9 9 10 10 10 10 10 10 10 10 11 11 12 12 13 13 13 14 14 13 13 13 13 13 14 14 15 15 15 15 14 14 14 13 13 14 14 15 15 16 17 18 19 20 21 22 23 24 25 26 27 28 29 30 32 33 34 36 37 38 38 39 40 41 42 43 43 44 45 45 46 46 46 46 46 46 46
7 8 8 8 9 9 9 9 9 9 9 10 10 10 10 10 10 11 11 11 11 11 12 13 13 14 15 15 15 15 15 14 14 14 15 15 16 16 16 15 15 15 14 14 14 15 15 15 15 16 17 18 19 20 21 22 23 24 24 25 26 27 29 30 31 33 34 35 36 37 38 38 39 40 41 42 43 43 44 45 45 46 46 46 46 46
9 9 9 9 9 8 8 9 10 10 9 10 10 10 10 10 10 11 12 12 12 12 12 12 13 14 14 15 16 16 17 16 16 16 16 16 16 16 17 17 16 16 16 16 16 16 16 17 17 17 18 19 19 20 21 22 23 24 25 26 27 28 29 30 31 32 33 35 36 37 38 39 39 39 40 40 41 42 43 44 44 45 45 46 46 46
11 11 10 10 10 9 9 10 10 10 9 9 10 10 10 11 11 12 12 12 13 13 13 14 14 14 14 15 15 16 17 18 18 18 18 18 17 17 17 18 18 18 18 18 18 18 18 18 19 19 20 20 21 22 22 23 24 25 26 27 28 29 30 31 32 33 34 35 36 37 38 39 39 40 40 40 40 40 41 42 43 44 45 45 45 46
14 14 13 12 12 11 11 11 10 9 9 9 11 10 11 13 13 13 14 14 14 15 14 15 16 16 15 16 16 16 17 18 19 19 20 20 20 19 19 19 19 20 20 20 20 20 20 21 21 21 21 22 23 23 24 25 25 26 27 28 29 30 30 31 32 33 34 36 37 38 38 39 40 40 40 40 39 39 40 41 42 43 44 44 45 46
16 15 15 14 14 13 12 11 10 9 9 10 11 12 13 14 13 14 14 15 16 16 16 16 17 18 18 18 18 18 18 19 19 20 21 21 21 21 22 21 21 22 22 22 22 22 22 22 23 23 23 24 24 25 25 26 26 27 28 29 30 30 31 32 33 34 34 36 37 38 39 40 40 40 40 40 40 39 39 40 41 42 43 44 45 46
16 15 15 15 14 14 13 12 12 11 11 12 13 13 14 14 14 14 15 16 16 17 19 18 17 18 20 21 21 21 20 20 21 21 21 21 22 22 23 23 24 24 24 24 24 24 25 24 24 25 25 25 26 26 27 27 28 28 29 30 31 31 32 33 34 34 35 36 37 38 39 40 40 41 41 42 41 41 40 41 41 42 43 44 45 46
16 16 16 15 15 15 14 14 14 13 13 14 14 14 14 15 16 16 16 16 17 17 20 21 20 19 20 21 22 23 22 22 23 23 22 22 23 23 24 24 25 25 26 25 25 25 26 26 26 26 26 26 27 27 28 29 29 30 31 32 32 33 34 34 35 36 37 38 38 39 40 41 42 42 42 42 42 42 42 41 42 43 43 44 45 46
18 17 17 16 16 16 16 16 15 16 16 16 15 15 16 16 17 17 17 16 17 17 18 20 22 23 23 22 22 23 24 24 24 25 24 24 24 24 25 25 25 26 27 27 26 26 26 27 27 27 28 28 28 28 29 30 31 32 33 33 34 35 35 36 37 37 38 39 40 41 42 43 43 43 43 43 43 43 42 42 42 43 44 44 45 46
19 19 19 18 18 18 18 17 17 17 17 18 17 17 17 17 18 18 18 18 18 18 18 19 21 23 25 25 24 25 26 25 26 26 26 25 25 25 26 26 26 27 27 27 27 27 27 27 27 28 28 29 29 30 30 31 32 33 34 35 35 36 37 37 38 39 40 41 42 42 43 44 44 44 44 43 43 44 44 43 43 44 45 45 46 47
21 22 22 21 21 21 20 20 19 19 19 19 19 19 19 19 20 20 21 21 22 22 21 21 21 22 24 26 26 26 27 27 27 27 27 27 27 27 27 27 28 28 29 29 29 29 29 28 28 28 28 29 30 31 31 32 33 34 35 36 36 37 38 38 39 40 41 41 42 43 44 44 45 45 45 45 45 45 45 45 46 46 46 47 47 48
25 25 25 24 24 24 23 24 22 21 22 21 21 22 22 22 22 23 23 24 25 26 26 26 26 25 25 28 29 28 28 29 29 29 29 28 28 28 29 29 29 30 30 30 30 30 30 30 29 29 29 30 31 31 32 33 34 36 37 37 38 38 39 40 41 42 43 43 43 44 45 45 45 45 46 47 47 47 47 48 48 48 48 48 48 49
29 29 29 28 29 27 27 28 27 25 24 24 25 26 25 25 26 27 26 27 28 29 30 30 30 30 29 30 32 31 31 32 32 31 31 31 30 31 31 30 30 31 31 31 32 32 31 31 31 31 31 31 32 33 34 35 36 36 37 38 39 40 41 42 43 43 44 45 46 46 46 46 45 46 48 48 49 49 49 49 49 50 50 50 50 50
32 33 32 31 33 32 30 30 32 30 28 28 29 30 29 29 30 30 30 30 31 32 34 34 34 34 33 33 34 34 34 35 34 33 33 33 33 33 34 33 32 32 33 32 32 32 32 33 33 33 33 34 34 35 35 36 37 38 39 40 41 42 43 44 45 45 46 46 47 48 47 46 46 48 49 51 51 51 50 50 50 51 51 51 51 51
35 35 35 34 35 36 33 32 34 34 32 31 32 33 34 33 33 33 34 33 33 35 36 37 36 36 36 35 36 36 36 36 36 35 35 35 35 36 36 36 35 35 34 34 34 33 33 33 33 34 35 35 36 37 37 38 39 40 41 42 43 44 44 45 46 47 48 48 48 48 47 47 48 49 51 53 53 53 52 51 51 52 52 53 53 53
37 37 37 37 37 38 37 36 36 37 36 35 34 36 37 37 36 36 37 36 35 37 38 39 38 37 37 36 36 36 36 36 36 35 36 36 37 37 38 38 38 38 37 37 37 36 35 35 35 35 36 36 37 38 39 39 40 41 42 43 44 44 45 46 47 48 49 50 49 48 49 49 50 51 53 54 55 55 54 53 53 54 54 54 54 54
39 40 40 40 40 41 41 40 39 40 40 38 37 39 41 40 39 39 40 38 36 37 40 40 39 39 39 38 37 37 37 37 35 34 36 37 37 38 38 39 39 40 40 39 40 40 39 38 38 37 37 38 38 39 39 40 41 42 43 44 44 45 45 47 48 48 49 50 50 51 51 51 52 52 53 54 55 55 55 55 56 56 57 57 57 57
40 41 41 41 42 42 42 42 41 42 43 41 39 41 44 42 41 41 42 41 38 39 41 41 40 40 41 41 41 41 40 39 37 36 37 38 38 38 39 40 41 41 42 42 42 42 42 42 41 41 40 40 40 41 41 41 42 43 44 44 45 45 46 48 48 49 49 51 52 52 53 53 53 54 54 55 55 56 56 57 58 58 58 59 59 59
43 44 43 42 44 45 44 44 44 44 45 43 41 43 46 45 43 43 44 43 41 42 43 43 42 43 43 43 44 44 43 41 39 38 38 39 39 40 41 41 42 43 43 44 44 44 44 44 44 44 44 43 43 44 44 44 44 45 46 46 47 47 48 49 51 51 51 52 53 54 54 54 54 55 55 56 56 57 58 59 59 59 59 60 60 61
46 47 47 46 47 47 47 47 46 46 48 46 44 46 48 47 46 46 46 45 44 44 44 44 45 45 45 45 46 46 46 44 42 41 41 40 41 42 43 43 44 45 45 46 46 47 47 47 47 46 46 46 46 47 47 47 48 48 49 50 50 50 51 52 53 53 53 54 54 55 55 56 56 56 57 57 58 59 60 60 61 61 61 61 61 62
49 49 49 49 50 50 50 50 49 50 50 49 47 49 50 49 48 49 48 48 48 47 46 46 47 46 46 47 48 48 49 48 46 46 46 44 44 44 45 46 46 47 48 48 49 49 49 49 49 49 48 48 48 49 50 51 51 52 52 53 53 53 53 54 55 56 55 56 56 56 57 57 58 59 59 60 60 61 62 62 63 63 63 63 63 63
47 47 46 46 47 49 50 49 49 50 51 50 50 52 53 53 52 52 52 52 51 51 50 51 51 50 50 51 51 52 52 52 52 52 52 51 50 49 49 50 50 50 51 51 51 51 51 52 52 52 52 52 51 52 52 53 54 55 55 56 56 55 55 56 57 58 58 59 59 59 60 60 60 61 62 62 63 63 64 64 64 65 65 65 65 65
42 42 41 41 42 44 45 44 44 45 45 46 48 49 50 53 53 52 54 55 53 53 54 54 54 54 53 54 54 55 56 55 55 55 56 56 55 54 54 54 54 54 54 54 54 54 54 54 55 55 56 56 55 55 55 56 57 59 59 59 59 58 58 58 59 60 62 63 63 62 63 63 63 63 64 65 65 65 66 66 66 67 67 67 67 67
42 41 40 41 42 43 43 43 42 41 40 41 43 43 43 46 47 47 49 50 49 50 50 50 50 50 50 51 51 51 52 52 52 53 54 55 55 55 56 56 56 56 57 57 57 57 57 57 57 58 58 58 58 58 58 59 60 61 63 64 63 62 62 62 62 63 64 65 66 66 66 66 67 66 66 67 68 68 68 68 68 68 69 69 69 69
46 44 43 43 43 44 44 44 43 42 40 40 42 41 40 41 43 44 44 44 44 45 45 45 45 45 44 45 45 44 44 45 47 47 48 49 50 51 52 53 54 54 55 56 57 58 59 59 60 60 60 60 61 61 61 61 62 63 64 65 65 65 65 65 65 65 66 67 68 69 69 69 69 69 69 69 70 71 71 71 71 71 71 70 70 69
47 47 46 45 46 45 45 46 45 44 43 43 43 42 41 41 41 42 43 43 43 43 44 45 44 43 42 42 43 43 43 43 45 45 45 46 47 48 48 49 50 50 51 53 54 55 55 56 57 59 60 61 62 62 63 63 63 64 65 65 66 67 67 67 67 68 69 70 71 72 72 72 72 72 72 72 72 72 72 72 72 71 71 70 70 69
47 47 46 45 47 47 46 47 48 47 45 44 44 44 44 43 43 43 44 45 45 45 45 45 44 43 43 44 44 45 46 46 47 47 47 47 48 48 48 48 49 49 49 50 50 50 51 52 54 56 57 58 59 61 62 62 63 63 64 65 66 67 68 68 69 69 70 72 72 72 72 73 73 74 74 74 73 72 72 71 71 71 70 70 69 69
49 49 48 47 49 49 47 48 50 50 48 47 46 46 45 46 46 45 45 46 47 47 46 46 46 47 48 48 48 49 50 51 50 50 50 49 49 49 50 50 50 50 50 50 50 51 51 52 53 54 54 55 56 57 58 60 61 61 62 64 66 66 67 67 68 69 70 71 71 72 72 72 73 73 73 74 73 72 70 70 70 70 71 70 69 68
52 51 52 51 51 51 50 50 52 52 52 51 50 49 49 49 48 47 47 48 49 49 48 48 50 52 52 53 53 53 54 55 55 54 54 53 52 52 52 52 52 52 52 52 52 53 53 53 53 55 55 55 55 56 56 58 59 60 61 62 63 63 64 65 65 66 67 68 69 70 71 71 70 70 70 70 69 69 68 68 68 69 69 69 69 68
54 55 55 55 54 54 54 54 54 54 54 54 53 53 53 52 51 50 51 51 51 52 52 52 52 53 54 54 55 56 57 58 58 58 58 58 57 56 56 55 55 55 55 54 55 56 56 56 55 56 57 58 58 57 57 58 59 60 60 60 59 60 60 61 63 64 64 65 66 67 68 68 67 67 67 67 67 68 69 69 69 69 70 70 69 67
57 58 59 58 57 57 57 57 56 55 56 57 56 56 56 56 55 55 55 56 55 55 55 55 56 56 55 55 56 57 58 59 60 61 61 61 61 60 59 59 58 58 58 58 57 58 60 60 59 59 59 60 61 61 60 60 61 61 61 59 59 59 59 60 61 63 64 64 64 65 66 67 67 67 68 68 69 70 71 72 72 71 71 71 71 70
60 61 61 60 60 60 61 60 59 58 58 59 59 58 59 59 59 58 58 59 58 57 57 58 59 59 59 58 58 58 58 59 61 62 63 63 63 63 63 62 62 62 62 61 60 60 61 62 63 62 62 62 62 63 63 64 64 64 63 62 61 60 59 59 60 61 62 63 63 64 65 66 68 69 70 71 72 72 72 72 72 72 71 72 72 72
Wind_Direction
121 121 122 124 123 119 118 117 117 113 108 106 103 100 98 94 91 90 88 88 87 86 87 87 86 82 79 78 80 84 87 94 96 85 70 61 64 67 65 62 61 60 58 57 54 52 49 45 44 45 45 42 38 35 34 34 33 35 36 32 29 26 20 15 11 9 4 353 337 320 311 307 298 292 286 278 270 264 258 255 254 253 252 252 252 253
111 113 116 118 118 116 116 114 112 107 102 98 96 95 95 91 87 85 84 82 81 80 78 78 77 75 75 75 75 77 79 82 85 83 76 67 65 64 60 60 58 56 55 54 53 53 51 49 48 49 48 45 42 40 38 37 35 35 35 32 29 27 25 23 20 20 18 12 7 359 347 336 317 297 291 284 276 269 262 257 255 253 252 251 251 251
108 110 112 112 111 111 109 106 103 101 99 96 93 91 91 91 87 84 83 78 75 72 69 71 73 69 67 66 67 71 72 73 72 70 67 63 60 58 56 55 54 53 53 52 51 51 51 51 50 50 51 48 47 48 47 45 43 41 40 39 36 31 28 29 31 33 32 29 27 24 17 7 352 327 308 296 282 273 265 260 256 254 252 250 249 249
107 107 107 105 103 103 101 98 96 95 95 96 95 94 93 90 85 82 79 75 73 71 67 68 71 67 61 57 57 60 63 62 61 59 56 54 52 51 51 51 51 51 51 50 49 49 50 51 50 50 50 49 49 51 52 51 50 49 49 47 44 41 40 39 40 42 42 41 41 39 34 28 22 12 355 333 308 289 277 268 260 256 253 250 248 248
101 99 98 98 99 98 97 97 94 91 92 93 94 94 92 87 84 80 77 75 74 72 67 63 64 63 59 56 52 52 53 52 52 51 48 47 46 45 46 47 48 48 49 49 48 48 48 49 49 49 49 49 49 49 51 52 52 52 52 51 49 49 49 48 48 48 47 45 45 44 42 38 36 34 30 24 11 348 319 293 274 264 257 252 249 246
95 95 93 93 95 96 95 94 94 92 90 89 89 88 86 86 87 87 84 80 76 72 64 57 56 55 52 50 48 47 45 43 44 44 42 42 41 41 42 43 44 45 45 45 45 46 46 47 48 49 49 48 47 47 48 49 50 50 50 50 50 50 50 50 51 51 50 47 46 45 44 42 41 41 41 40 38 33 24 8 336 296 273 262 255 250
95 97 96 94 92 91 90 90 93 93 89 87 87 87 86 88 90 91 88 82 76 69 60 54 54 54 48 41 42 44 40 36 37 37 37 37 38 38 39 40 41 42 42 42 43 44 44 45 45 46 47 47 46 45 45 46 47 47 47 47 47 48 48 48 49 50 50 48 47 47 46 45 43 43 43 44 44 43 41 37 29 15 344 302 277 263
95 95 96 94 90 88 88 90 90 91 92 90 90 90 88 87 86 85 83 79 74 67 58 52 51 52 43 32 33 36 34 31 29 30 30 31 34 36 37 38 39 39 40 41 42 43 43 42 42 43 44 45 45 44 43 44 44 44 44 44 44 44 44 45 45 46 47 46 46 46 46 46 46 45 45 45 44 44 44 43 41 38 32 19 355 317
93 92 91 91 89 88 87 87 85 87 91 90 89 88 85 84 82 79 78 78 73 67 63 57 54 51 36 21 20 23 28 28 25 24 25 26 30 33 34 35 36 37 37 39 41 42 41 41 40 41 42 43 44 43 42 42 43 43 43 42 42 42 42 42 42 43 43 43 43 43 44 44 45 46 46 47 46 45 44 44 43 43 42 39 34 24
86 86 85 85 86 86 83 83 82 81 82 82 81 80 77 76 75 73 71 71 70 68 65 62 62 63 49 26 14 15 22 25 22 20 22 25 27 30 31 31 32 34 33 36 40 41 41 40 40 40 41 42 43 43 42 42 42 42 42 42 41 41 41 41 41 41 42 41 42 41 41 41 41 42 43 44 45 45 45 45 44 43 42 42 41 39
79 79 79 81 82 82 80 79 79 76 74 72 74 74 71 67 68 68 62 59 61 63 61 61 61 63 54 34 22 20 21 22 21 19 20 23 26 28 29 28 29 30 29 32 36 38 39 39 40 41 42 42 42 43 42 41 41 41 41 41 41 41 41 40 40 41 40 40 41 40 40 40 40 40 40 40 41 41 42 43 43 43 43 42 41 40
74 74 75 76 76 77 77 77 76 74 72 69 69 69 68 63 63 66 64 60 60 60 61 60 59 59 50 36 31 29 26 24 23 23 22 25 28 30 30 29 29 30 28 28 32 35 38 39 41 42 42 42 42 42 41 40 40 40 40 40 40 40 40 40 40 40 39 39 39 39 39 39 40 40 40 39 40 39 39 40 40 41 41 41 41 40
74 73 72 70 70 69 70 71 71 71 69 67 66 67 69 68 64 64 65 61 59 60 60 59 58 57 48 37 35 34 32 31 30 29 29 30 33 34 33 31 31 31 29 28 31 34 37 40 42 43 42 41 41 41 40 39 38 38 39 39 39 38 38 38 38 38 38 38 39 39 38 39 39 39 39 39 39 39 39 39 39 39 39 39 39 39
74 72 71 69 67 64 62 62 63 64 64 62 61 63 65 65 61 60 59 56 54 54 55 55 54 54 46 34 32 35 35 36 36 36 36 36 36 37 36 34 33 32 30 29 32 36 39 41 42 43 42 41 40 40 39 39 37 37 37 37 37 37 36 35 36 36 36 36 37 37 37 38 38 38 38 38 38 38 38 38 38 38 38 38 38 37
73 71 70 68 64 62 61 58 56 57 57 55 55 55 55 54 53 52 51 50 50 49 51 51 50 53 48 35 33 35 34 35 37 38 39 38 37 37 37 36 36 36 33 31 34 38 40 41 41 41 41 40 39 38 38 37 36 35 35 35 35 36 35 34 33 34 34 34 34 34 34 35 36 36 36 36 36 36 36 36 37 37 37 37 37 37
68 67 67 66 62 60 59 55 53 51 50 48 47 46 46 45 43 42 42 43 44 44 46 48 50 53 47 37 35 35 32 33 34 35 36 36 35 34 33 33 34 37 37 35 35 37 38 39 39 39 39 39 38 37 36 35 35 34 33 32 32 32 32 31 31 31 30 31 31 31 31 31 32 32 33 33 34 34 34 34 34 34 34 34 34 34
63 59 59 59 57 55 55 51 47 46 44 41 39 37 36 33 31 31 31 32 34 35 37 40 47 49 40 32 32 30 26 25 25 27 28 28 29 28 28 27 29 33 36 35 34 33 33 34 35 36 37 37 37 36 35 34 34 32 31 30 29 28 28 28 27 27 27 27 27 27 27 28 28 28 29 29 30 31 32 32 32 31 31 31 31 31
54 49 46 46 45 46 48 45 39 35 33 33 32 31 28 22 18 18 20 20 20 22 25 27 34 40 34 28 28 24 17 13 13 14 16 17 19 20 20 20 22 26 29 31 30 28 28 28 29 30 32 33 34 35 34 33 31 30 28 27 26 25 24 24 24 23 23 23 23 23 23 23 24 24 24 25 26 27 28 29 30 30 29 28 28 28
28 27 25 25 27 28 31 32 30 24 21 23 25 25 24 17 12 11 11 10 9 9 12 14 19 24 23 22 21 17 11 6 4 3 5 6 8 9 11 11 13 15 18 20 20 20 22 23 23 24 25 27 28 29 30 29 27 26 24 23 22 22 21 21 20 20 20 20 19 19 19 19 19 19 20 20 21 21 22 24 25 26 27 26 25 24
357 359 2 3 6 9 12 15 16 14 12 12 14 16 16 13 10 10 8 5 3 2 3 5 6 8 9 11 11 9 5 1 356 354 355 357 358 359 1 1 2 3 4 6 6 7 12 16 16 16 17 18 19 20 21 22 21 20 19 18 18 17 16 16 16 16 16 16 16 16 15 15 15 15 15 16 16 17 17 18 19 20 22 22 22 22
335 339 344 347 352 358 359 358 1 3 3 3 3 3 6 6 5 6 7 4 2 1 360 359 357 357 359 359 360 360 359 357 353 349 348 348 349 350 351 352 352 352 352 353 354 355 358 2 4 5 6 7 9 10 11 12 13 12 12 12 12 11 11 12 12 13 13 12 12 12 12 12 11 11 11 12 12 13 13 13 14 14 15 17 18 18
324 328 331 333 338 341 340 341 346 349 349 352 353 352 356 360 360 1 2 1 0 359 357 356 353 352 352 352 351 350 349 349 348 346 344 343 343 342 342 342 343 343 343 342 343 344 345 348 350 353 354 356 358 359 0 2 3 3 3 3 4 4 5 6 7 8 9 9 9 8 8 8 7 7 7 8 9 9 9 9 9 10 10 11 12 13
313 316 318 319 320 321 324 328 332 334 335 339 344 346 348 349 351 354 353 353 353 353 353 351 348 349 349 347 346 344 342 341 341 340 340 339 339 338 336 336 335 335 335 334 334 335 336 338 340 342 344 345 347 349 351 353 354 354 355 355 356 358 358 359 1 2 3 4 4 4 4 4 4 3 3 4 5 5 5 5 5 5 6 6 6 7
303 304 306 308 307 311 317 318 320 326 329 333 337 336 334 335 339 342 342 342 342 342 345 345 340 340 343 342 340 339 337 335 335 335 335 335 335 334 334 332 331 330 330 329 328 328 328 329 331 332 334 336 338 340 342 343 344 345 347 348 349 351 352 353 354 356 357 358 358 358 358 359 359 359 360 0 1 1 1 1 1 2 2 2 2 3
297 300 302 304 306 310 311 309 311 319 322 325 326 323 323 327 331 334 336 336 336 335 337 340 336 332 333 334 333 332 332 330 330 329 329 329 329 329 329 329 329 328 327 326 324 323 322 322 323 325 327 329 331 333 334 334 335 337 339 340 342 343 345 346 348 349 351 352 352 353 353 354 355 355 356 356 357 357 357 358 358 358 358 358 358 359
294 296 299 301 303 306 305 304 308 313 313 313 314 316 320 325 328 332 334 335 335 332 332 334 334 330 328 329 328 327 326 325 323 321 321 321 321 321 322 322 323 323 323 323 322 320 319 318 318 319 320 321 323 325 326 327 328 330 331 332 334 336 338 340 341 343 344 346 347 347 348 349 350 351 352 352 353 353 353 354 354 354 354 355 355 355
289 291 293 295 297 299 300 301 305 307 307 308 309 312 317 321 323 326 329 329 330 329 327 327 329 328 326 325 324 323 322 321 319 317 316 315 315 314 315 315 316 317 317 318 319 318 317 315 314 314 314 315 316 318 319 321 322 323 325 326 328 330 333 335 336 337 339 340 341 342 343 345 346 347 348 349 349 349 349 350 350 351 351 352 352 352
285 286 288 289 290 291 292 294 297 300 302 304 306 308 311 313 315 317 319 320 320 321 321 320 321 323 323 322 322 320 320 320 318 317 317 315 314 312 311 311 310 310 312 313 314 314 314 313 312 311 310 310 311 312 313 314 316 317 319 321 323 326 328 330 331 332 334 336 337 339 340 341 342 343 344 345 346 346 346 346 346 347 347 348 348 349
282 283 285 287 287 287 288 289 291 294 297 299 301 303 304 305 307 309 311 313 313 314 315 314 316 317 317 317 318 317 317 316 316 316 317 317 315 314 311 309 308 308 308 309 310 311 310 310 310 309 308 307 306 308 309 310 311 313 314 317 319 322 324 325 327 329 330 332 334 335 336 337 338 339 340 341 342 342 342 342 343 343 344 344 345 345
278 279 280 282 283 284 286 287 288 290 291 293 296 297 298 300 302 304 306 308 310 311 312 312 312 313 312 311 312 312 312 312 312 313 315 315 315 314 313 311 310 309 308 308 308 307 307 307 308 308 307 305 304 304 305 306 308 309 311 314 316 319 320 322 323 325 327 328 330 331 333 334 334 335 336 337 338 339 339 339 340 340 340 341 342 342
274 275 276 278 279 281 282 283 285 287 288 290 292 291 293 296 297 298 301 304 305 306 308 310 310 310 309 308 308 309 308 307 308 309 310 312 312 312 312 312 311 310 310 309 308 306 306 305 305 305 305 304 303 302 303 304 305 307 310 312 314 315 317 318 320 321 323 325 327 329 330 331 331 332 332 333 334 335 336 336 337 337 337 338 339 339
272 273 275 276 277 278 280 282 283 283 285 288 288 287 290 293 293 293 296 299 301 302 304 305 306 307 308 306 306 307 305 304 305 306 308 308 308 308 308 309 310 310 310 310 309 308 306 305 304 304 304 303 302 302 302 303 304 305 307 309 311 313 314 316 317 319 321 323 325 326 327 328 329 328 328 329 330 332 333 333 334 334 334 335 336 336
273 274 275 276 277 278 279 281 282 283 284 286 286 287 289 289 289 291 293 295 297 299 300 301 302 304 305 305 305 305 303 303 305 306 307 306 305 304 305 305 306 306 307 308 308 308 307 306 304 304 304 303 303 303 303 304 304 305 307 308 309 311 312 314 315 317 318 320 322 323 324 325 326 325 325 326 327 328 329 330 331 331 331 332 333 333
274 275 276 277 277 279 279 279 281 283 283 283 284 287 288 288 288 290 291 293 295 296 297 298 300 301 303 303 304 303 302 303 305 306 306 304 302 301 303 303 303 303 303 304 305 306 306 305 304 304 304 304 304 304 304 304 305 306 306 307 308 309 311 312 313 315 316 317 319 320 322 323 324 323 322 322 323 325 326 327 328 328 328 329 330 330
274 275 276 277 278 279 280 280 281 283 283 284 285 286 286 286 288 289 290 291 294 295 295 295 298 299 300 301 300 300 300 301 304 305 304 301 300 301 301 301 301 301 301 301 302 302 302 303 303 303 303 304 304 304 305 305 305 305 305 306 307 309 310 310 311 313 314 315 316 318 319 320 320 320 319 319 320 322 324 325 325 325 325 326 327 328
273 274 276 277 277 278 280 281 281 282 282 284 285 285 284 285 287 287 288 289 292 293 292 294 297 298 298 298 297 296 297 298 301 302 300 298 299 300 300 299 299 300 300 300 299 300 300 300 301 301 301 302 302 303 304 304 305 305 305 306 307 308 308 308 309 310 311 312 314 315 316 317 316 316 316 317 318 320 321 322 322 323 323 324 325 325
271 273 274 276 277 278 279 279 280 281 281 282 284 284 284 285 286 287 288 290 291 290 290 292 295 295 295 296 296 296 296 298 299 299 297 297 298 299 298 298 299 299 299 298 298 298 298 299 299 300 300 300 300 301 301 302 302 302 303 303 304 305 305 306 306 307 308 309 310 311 312 312 313 314 314 315 316 317 318 318 319 320 321 322 323 323
272 272 273 275 276 277 278 279 280 280 281 282 284 283 283 285 286 287 288 290 290 290 291 293 293 292 293 293 294 294 294 296 296 295 294 296 297 297 297 297 298 298 298 298 298 298 298 299 299 299 299 299 299 299 298 298 298 299 299 300 300 301 302 302 303 304 305 306 307 308 308 309 310 311 312 313 313 314 315 316 317 317 318 319 320 321
272 273 274 274 275 276 277 278 280 280 281 282 283 282 283 285 286 286 287 288 288 287 289 289 290 290 291 290 290 291 291 292 292 291 291 293 294 294 295 295 296 296 297 297 298 298 298 299 298 298 298 298 298 297 297 296 296 296 297 297 298 299 300 300 300 301 302 303 304 305 306 307 308 308 309 309 310 311 312 313 314 315 316 317 318 318
273 273 274 274 275 277 277 278 279 280 281 283 283 282 283 284 284 285 285 286 286 286 287 287 287 287 288 288 288 288 289 291 291 290 290 290 290 291 292 292 293 294 294 295 296 297 297 297 297 297 297 297 297 297 296 296 296 296 296 296 296 298 299 300 300 301 301 301 302 303 304 304 305 306 307 308 309 310 311 311 312 313 314 315 315 316
275 275 276 276 277 278 278 279 280 280 281 282 282 282 283 284 284 284 284 284 285 286 286 286 287 287 287 287 287 288 289 290 290 290 290 290 289 289 289 289 290 290 291 292 293 293 294 294 295 295 296 296 296 297 297 297 297 296 296 296 297 299 299 299 300 300 300 300 301 301 302 302 303 304 305 307 308 308 309 310 311 311 312 312 313 314
275 278 279 280 280 279 280 281 282 283 284 285 283 283 284 284 285 285 285 285 286 286 286 287 287 287 287 287 288 289 289 290 289 289 289 289 289 289 289 288 288 289 289 290 290 290 291 292 293 294 294 295 295 295 296 296 296 296 297 297 297 298 298 298 299 299 299 299 300 300 301 301 302 303 304 305 306 306 307 307 308 309 309 310 311 312
277 278 280 281 282 282 283 284 283 284 286 287 286 287 288 289 289 289 289 289 289 289 289 289 289 290 290 290 290 291 291 291 291 291 291 291 291 291 290 290 289 289 289 288 289 289 289 289 290 290 291 291 292 292 293 294 294 295 295 296 296 297 297 297 298 298 298 298 299 299 299 300 301 302 303 303 304 304 304 305 305 306 307 308 309 310
280 281 282 282 283 285 286 287 287 288 289 288 288 290 291 292 294 294 294 293 293 293 292 292 292 294 295 295 295 295 294 294 295 296 297 297 296 296 295 295 294 293 292 291 290 290 289 288 288 288 288 288 289 290 290 291 292 292 292 293 294 295 295 296 296 297 297 297 297 297 298 298 299 300 301 301 301 302 303 303 304 305 306 307 308 308
282 283 284 286 286 287 287 288 290 291 291 291 291 292 291 292 293 294 295 295 294 294 294 294 294 295 296 296 296 296 296 297 299 300 300 299 300 300 300 300 300 299 298 297 296 295 293 292 290 289 289 289 289 289 289 290 290 290 290 291 291 292 293 294 294 295 295 295 296 296 297 298 299 299 299 300 300 300 301 302 303 304 305 306 306 307
282 284 286 287 287 287 288 290 291 291 292 292 292 292 292 292 292 292 294 295 295 294 295 296 296 296 295 295 296 297 297 298 299 299 299 299 300 300 301 301 301 301 301 300 300 299 298 297 296 295 294 293 292 291 290 290 290 290 289 289 290 290 291 292 293 293 293 294 294 295 296 297 298 298 298 299 299 299 300 301 302 303 303 304 305 306
282 285 286 286 286 287 290 291 291 292 294 294 294 294 295 295 294 294 295 296 296 296 297 298 298 298 298 297 298 299 299 299 300 300 301 301 301 301 301 301 301 301 301 301 300 299 299 299 299 298 298 298 297 295 294 292 291 291 290 290 290 290 290 291 291 291 292 292 293 293 294 295 296 297 297 298 299 300 300 301 301 302 303 304 306 307
282 283 284 284 286 288 289 289 290 293 294 295 295 296 295 295 296 298 298 297 296 297 299 299 299 299 300 300 300 301 301 301 302 302 303 303 303 303 302 302 301 301 301 301 301 300 299 299 299 299 300 300 299 298 297 296 295 295 294 294 293 293 292 292 291 291 291 291 292 293 294 295 296 297 297 298 298 299 299 299 300 301 302 303 304 305
280 281 282 283 285 287 288 288 290 291 292 293 293 295 295 295 297 297 296 296 297 299 300 301 300 300 301 300 300 300 300 301 302 302 302 302 302 302 302 302 302 302 302 302 302 302 301 301 301 301 301 302 301 300 299 299 298 298 298 297 297 297 297 296 295 294 293 293 293 294 295 295 296 295 295 295 295 295 296 297 297 298 299 300 301 303
279 280 281 282 284 285 287 288 288 289 290 290 291 293 293 294 295 296 295 295 298 300 301 300 299 299 300 301 300 300 300 299 299 300 300 300 300 300 300 301 301 302 302 302 303 303 303 303 303 303 303 303 302 302 302 301 300 300 300 300 300 301 301 300 299 298 297 296 295 295 295 294 294 293 293 292 292 293 294 295 296 297 298 299 299 300
278 279 281 282 284 285 286 287 288 288 289 290 291 292 292 292 293 294 294 295 297 299 298 296 297 299 301 302 301 299 298 297 297 297 297 297 297 297 297 298 299 300 301 302 302 303 303 304 304 304 304 303 302 303 302 302 302 302 301 301 302 303 303 302 301 300 299 298 297 296 295 295 294 294 294 293 293 293 294 294 295 296 297 298 299 300
Height
10706 10706 10708 10710 10711 10712 10714 10715 10716 10716 10716 10717 10718 10718 10720 10720 10720 10720 10720 10720 10720 10721 10722 10721 10720 10721 10720 10718 10717 10716 10716 10715 10715 10715 10714 10713 10713 10711 10709 10708 10705 10703 10700 10696 10693 10689 10685 10680 10676 10672 10668 10664 10661 10657 10653 10650 10648 10645 10643 10642 10640 10637 10635 10633 10631 10629 10627 10625 10624 10622 10621 10620 10619 10618 10618 10617 10617 10617 10618 10620 10622 10624 10627 10629 10632 10634
10708 10710 10711 10713 10714 10715 10716 10718 10719 10718 10718 10719 10720 10721 10721 10721 10722 10722 10722 10722 10721 10722 10724 10722 10722 10723 10722 10721 10720 10719 10718 10718 10717 10716 10716 10715 10713 10712 10710 10708 10706 10703 10700 10697 10694 10690 10686 10682 10678 10674 10671 10667 10663 10660 10657 10653 10650 10648 10646 10644 10641 10639 10636 10634 10632 10630 10627 10625 10623 10621 10619 10617 10616 10615 10613 10613 10612 10611 10611 10613 10614 10616 10619 10622 10624 10627
10712 10714 10716 10717 10718 10719 10719 10720 10721 10721 10720 10721 10722 10723 10723 10722 10723 10724 10724 10724 10723 10724 10725 10724 10724 10724 10723 10723 10723 10721 10721 10720 10719 10718 10717 10716 10714 10713 10711 10708 10706 10704 10701 10698 10695 10691 10688 10684 10681 10677 10674 10671 10667 10664 10661 10657 10654 10652 10649 10646 10644 10640 10638 10635 10633 10631 10628 10625 10623 10620 10619 10616 10614 10612 10610 10609 10608 10607 10607 10607 10608 10609 10611 10613 10617 10619
10717 10719 10720 10720 10722 10723 10722 10722 10724 10724 10723 10723 10724 10726 10726 10724 10725 10726 10726 10725 10725 10726 10726 10726 10726 10725 10725 10725 10724 10724 10723 10721 10720 10719 10718 10717 10715 10713 10711 10709 10706 10704 10702 10699 10696 10693 10690 10686 10683 10680 10677 10674 10671 10668 10665 10662 10659 10656 10652 10650 10646 10643 10640 10637 10634 10632 10630 10627 10624 10621 10619 10616 10613 10610 10608 10606 10605 10604 10603 10603 10604 10604 10605 10607 10610 10612
10720 10722 10724 10723 10724 10726 10726 10724 10726 10727 10727 10726 10727 10728 10727 10726 10727 10728 10727 10727 10727 10727 10728 10728 10727 10726 10726 10726 10726 10725 10723 10722 10721 10720 10719 10717 10716 10714 10712 10709 10707 10705 10703 10700 10698 10695 10691 10688 10685 10682 10679 10677 10674 10672 10669 10666 10663 10660 10656 10653 10649 10646 10642 10639 10636 10634 10632 10629 10625 10622 10619 10617 10614 10611 10609 10606 10604 10603 10602 10601 10601 10601 10602 10603 10604 10606
10723 10725 10727 10728 10727 10729 10729 10727 10728 10730 10730 10729 10729 10730 10729 10729 10729 10730 10729 10729 10728 10729 10729 10729 10727 10726 10727 10728 10727 10725 10724 10723 10722 10721 10720 10718 10716 10714 10713 10710 10708 10705 10703 10701 10699 10696 10693 10690 10687 10684 10682 10679 10677 10674 10672 10669 10666 10663 10660 10656 10652 10649 10646 10642 10639 10636 10633 10630 10627 10624 10621 10619 10616 10613 10611 10608 10606 10604 10602 10601 10600 10600 10600 10600 10601 10603
10728 10729 10730 10731 10731 10732 10732 10731 10731 10731 10732 10732 10732 10732 10732 10731 10731 10732 10731 10730 10730 10730 10730 10730 10729 10728 10729 10729 10728 10727 10726 10725 10724 10722 10721 10720 10718 10716 10713 10711 10708 10707 10704 10702 10700 10697 10695 10692 10690 10687 10684 10681 10679 10677 10674 10671 10668 10665 10662 10659 10655 10652 10649 10645 10642 10638 10634 10632 10630 10627 10624 10622 10619 10616 10613 10610 10608 10606 10604 10602 10601 10600 10599 10599 10600 10601
10732 10732 10732 10733 10733 10734 10734 10735 10735 10733 10734 10735 10735 10734 10734 10734 10733 10733 10733 10732 10732 10732 10732 10732 10731 10730 10730 10730 10730 10729 10728 10726 10725 10723 10722 10721 10719 10717 10714 10712 10710 10708 10706 10704 10702 10699 10697 10694 10692 10689 10686 10683 10681 10679 10676 10673 10670 10667 10664 10661 10657 10654 10651 10648 10644 10641 10637 10635 10633 10630 10627 10625 10622 10620 10617 10614 10611 10609 10607 10605 10603 10602 10601 10600 10600 10600
10735 10735 10735 10734 10735 10737 10737 10737 10737 10736 10736 10737 10737 10736 10736 10735 10735 10735 10734 10734 10734 10734 10734 10733 10732 10731 10731 10731 10731 10730 10729 10728 10727 10725 10724 10722 10720 10717 10715 10714 10711 10709 10708 10706 10703 10701 10699 10696 10694 10691 10688 10685 10683 10681 10678 10676 10673 10670 10667 10663 10660 10657 10654 10651 10647 10644 10641 10638 10636 10633 10631 10628 10626 10624 10621 10618 10615 10613 10611 10609 10607 10605 10603 10602 10601 10600
10737 10737 10737 10736 10737 10739 10739 10739 10739 10739 10739 10739 10738 10738 10738 10737 10737 10736 10736 10736 10736 10735 10735 10734 10734 10733 10732 10733 10733 10731 10730 10729 10728 10726 10724 10722 10720 10718 10716 10714 10712 10710 10709 10707 10705 10703 10701 10699 10696 10693 10691 10688 10685 10683 10681 10678 10675 10672 10669 10666 10663 10660 10657 10654 10651 10648 10644 10641 10639 10636 10634 10631 10629 10626 10623 10621 10618 10617 10615 10612 10610 10608 10606 10605 10603 10602
10740 10739 10739 10739 10740 10741 10741 10741 10741 10741 10741 10741 10740 10739 10739 10739 10738 10738 10738 10738 10737 10737 10736 10735 10735 10734 10734 10734 10733 10732 10730 10729 10728 10726 10725 10723 10721 10718 10717 10715 10713 10712 10710 10709 10707 10705 10703 10701 10699 10696 10693 10690 10687 10685 10683 10680 10678 10675 10672 10669 10667 10664 10661 10658 10655 10651 10648 10645 10643 10640 10638 10635 10632 10629 10626 10623 10621 10619 10617 10615 10613 10611 10609 10607 10606 10605
10742 10742 10742 10742 10743 10743 10743 10743 10742 10742 10742 10742 10742 10741 10740 10741 10740 10739 10739 10739 10739 10738 10737 10736 10736 10735 10735 10734 10733 10732 10731 10730 10729 10727 10725 10724 10722 10720 10718 10717 10715 10714 10712 10711 10709 10707 10705 10703 10700 10698 10695 10693 10690 10687 10685 10683 10680 10678 10675 10672 10670 10667 10665 10662 10659 10655 10652 10650 10647 10644 10642 10639 10636 10633 10630 10628 10625 10623 10621 10618 10616 10614 10612 10611 10609 10608
10745 10745 10745 10745 10745 10745 10745 10745 10744 10744 10743 10744 10743 10743 10742 10742 10742 10741 10741 10741 10740 10739 10738 10737 10737 10736 10735 10735 10734 10733 10732 10730 10729 10728 10726 10725 10723 10722 10720 10719 10717 10716 10714 10713 10711 10708 10706 10704 10702 10700 10697 10695 10693 10690 10688 10685 10682 10680 10677 10675 10672 10670 10668 10665 10662 10659 10657 10654 10652 10649 10646 10643 10640 10637 10635 10633 10630 10628 10625 10622 10620 10617 10615 10613 10612 10611
10747 10747 10747 10747 10747 10747 10747 10747 10746 10745 10745 10745 10745 10744 10744 10743 10743 10742 10742 10741 10740 10739 10739 10738 10738 10737 10736 10735 10735 10734 10733 10732 10730 10729 10727 10726 10724 10723 10722 10720 10719 10717 10716 10714 10712 10710 10708 10706 10704 10701 10699 10697 10695 10692 10690 10687 10685 10683 10680 10678 10675 10673 10670 10668 10665 10663 10660 10658 10656 10653 10650 10647 10644 10642 10639 10637 10634 10631 10629 10626 10623 10621 10619 10616 10615 10613
10750 10750 10749 10750 10749 10749 10749 10748 10748 10747 10747 10747 10746 10746 10745 10744 10744 10743 10743 10742 10741 10740 10740 10739 10739 10738 10737 10736 10736 10735 10734 10733 10731 10730 10728 10727 10726 10725 10723 10722 10720 10719 10718 10716 10714 10712 10710 10708 10705 10703 10701 10699 10697 10694 10692 10690 10688 10685 10683 10680 10678 10676 10673 10671 10668 10666 10663 10661 10658 10656 10653 10650 10647 10645 10642 10640 10637 10634 10632 10629 10627 10625 10622 10620 10618 10616
10752 10752 10752 10751 10751 10751 10750 10750 10750 10749 10749 10748 10748 10747 10746 10746 10745 10744 10744 10743 10742 10741 10741 10740 10740 10739 10738 10738 10737 10735 10735 10734 10732 10731 10730 10728 10727 10726 10724 10723 10722 10720 10719 10717 10716 10713 10711 10709 10707 10705 10703 10700 10698 10696 10694 10692 10690 10687 10685 10683 10680 10678 10676 10673 10670 10668 10665 10663 10660 10658 10655 10652 10650 10647 10645 10642 10640 10637 10635 10632 10630 10628 10625 10623 10621 10619
10754 10754 10753 10753 10753 10752 10751 10751 10751 10751 10750 10750 10749 10748 10747 10746 10746 10745 10745 10744 10743 10742 10741 10741 10740 10740 10739 10738 10737 10736 10735 10734 10733 10732 10731 10729 10728 10727 10725 10724 10723 10721 10720 10718 10717 10715 10713 10711 10709 10706 10704 10702 10700 10698 10696 10694 10692 10690 10687 10685 10682 10680 10678 10675 10672 10670 10668 10665 10662 10659 10656 10654 10652 10649 10647 10645 10643 10640 10638 10635 10633 10630 10628 10626 10623 10621
10755 10755 10754 10754 10754 10753 10753 10753 10752 10752 10751 10750 10750 10749 10748 10748 10747 10746 10745 10745 10744 10743 10742 10741 10741 10740 10739 10738 10737 10736 10736 10735 10734 10732 10731 10730 10728 10727 10726 10725 10724 10722 10721 10719 10717 10716 10714 10712 10710 10708 10706 10703 10701 10699 10697 10695 10693 10691 10689 10687 10685 10682 10679 10677 10674 10672 10669 10666 10663 10661 10658 10656 10654 10652 10650 10647 10645 10642 10640 10638 10635 10633 10630 10628 10625 10622
10756 10756 10755 10755 10755 10754 10754 10753 10753 10753 10752 10751 10751 10750 10749 10749 10748 10747 10746 10745 10745 10744 10743 10742 10741 10740 10740 10739 10737 10737 10736 10735 10734 10732 10731 10730 10729 10727 10726 10725 10724 10722 10721 10719 10718 10717 10715 10712 10711 10709 10707 10705 10703 10700 10698 10696 10694 10693 10691 10689 10686 10684 10681 10679 10676 10674 10671 10668 10666 10663 10661 10658 10656 10654 10651 10649 10646 10644 10641 10639 10636 10634 10632 10629 10627 10624
10757 10756 10756 10756 10755 10755 10754 10754 10754 10753 10752 10752 10751 10751 10750 10749 10748 10748 10747 10746 10745 10744 10743 10742 10741 10740 10739 10739 10738 10737 10736 10735 10734 10732 10731 10730 10728 10727 10726 10725 10724 10722 10721 10719 10718 10717 10715 10713 10711 10709 10708 10706 10704 10701 10699 10697 10695 10693 10692 10690 10688 10685 10683 10681 10678 10675 10673 10670 10668 10666 10663 10661 10658 10656 10653 10650 10647 10644 10642 10639 10637 10635 10633 10630 10628 10626
10757 10756 10756 10756 10755 10755 10755 10754 10754 10753 10753 10752 10751 10751 10750 10750 10749 10748 10747 10747 10746 10745 10744 10743 10742 10741 10740 10739 10738 10737 10736 10735 10734 10732 10731 10729 10728 10727 10726 10724 10723 10722 10721 10719 10718 10716 10714 10713 10711 10709 10708 10706 10704 10702 10700 10698 10696 10694 10692 10690 10688 10686 10684 10681 10679 10676 10674 10672 10669 10667 10665 10662 10660 10657 10654 10651 10648 10645 10643 10640 10638 10635 10633 10631 10629 10627
10756 10756 10756 10756 10755 10755 10755 10754 10754 10753 10752 10752 10751 10751 10750 10750 10749 10748 10747 10747 10746 10745 10744 10743 10742 10741 10740 10739 10738 10737 10736 10735 10734 10733 10731 10729 10728 10726 10725 10724 10723 10721 10720 10719 10717 10715 10714 10712 10710 10708 10707 10705 10703 10702 10700 10697 10696 10694 10692 10690 10688 10685 10683 10681 10679 10677 10674 10672 10669 10667 10665 10663 10660 10658 10655 10652 10649 10646 10643 10641 10638 10636 10634 10631 10629 10627
10755 10755 10755 10755 10755 10754 10754 10754 10753 10753 10752 10752 10751 10751 10750 10750 10749 10748 10748 10747 10746 10745 10744 10743 10742 10741 10740 10739 10738 10737 10736 10735 10733 10732 10731 10729 10728 10726 10725 10723 10722 10720 10719 10718 10716 10715 10713 10711 10709 10707 10706 10704 10702 10700 10698 10696 10695 10693 10691 10689 10687 10684 10682 10680 10678 10676 10673 10671 10669 10667 10665 10662 10660 10657 10655 10652 10649 10646 10644 10641 10638 10635 10633 10631 10629 10627
10754 10754 10754 10754 10754 10754 10754 10753 10753 10752 10752 10752 10751 10751 10750 10750 10749 10748 10748 10747 10746 10745 10745 10744 10742 10741 10740 10739 10738 10737 10735 10734 10733 10732 10730 10729 10727 10726 10724 10723 10721 10720 10718 10717 10715 10713 10712 10710 10708 10706 10705 10703 10701 10699 10697 10695 10694 10692 10690 10688 10686 10684 10682 10679 10677 10675 10673 10671 10668 10666 10664 10662 10659 10657 10655 10652 10649 10647 10644 10641 10638 10635 10633 10630 10628 10625
10753 10753 10753 10753 10753 10753 10753 10752 10752 10752 10751 10751 10751 10751 10750 10750 10749 10748 10748 10747 10746 10745 10744 10743 10742 10740 10739 10738 10737 10736 10735 10733 10732 10731 10729 10728 10727 10725 10724 10722 10721 10719 10717 10715 10714 10712 10710 10709 10707 10705 10703 10701 10700 10698 10696 10695 10693 10691 10689 10687 10685 10683 10681 10679 10677 10675 10673 10671 10668 10666 10664 10661 10659 10656 10654 10652 10649 10646 10644 10641 10638 10635 10632 10630 10627 10624
10752 10752 10752 10752 10752 10752 10752 10751 10751 10751 10751 10751 10751 10750 10749 10749 10748 10748 10747 10746 10745 10743 10742 10741 10741 10740 10738 10736 10735 10734 10733 10732 10730 10729 10728 10727 10725 10724 10723 10721 10719 10718 10716 10714 10712 10711 10709 10707 10706 10704 10702 10701 10699 10697 10695 10693 10691 10690 10688 10686 10684 10682 10680 10678 10676 10674 10672 10670 10668 10666 10664 10661 10658 10655 10653 10650 10647 10645 10642 10639 10637 10634 10631 10628 10625 10622
10751 10751 10751 10751 10750 10750 10750 10750 10750 10750 10750 10750 10749 10749 10748 10748 10747 10746 10745 10744 10743 10742 10741 10739 10738 10738 10737 10735 10734 10732 10731 10729 10728 10727 10726 10725 10723 10722 10721 10719 10718 10716 10714 10713 10711 10709 10707 10706 10704 10702 10701 10699 10698 10696 10694 10692 10690 10688 10686 10684 10682 10680 10678 10676 10674 10672 10670 10668 10666 10664 10662 10660 10657 10654 10652 10649 10646 10643 10641 10638 10636 10633 10630 10628 10625 10622
10750 10749 10749 10749 10749 10749 10749 10749 10748 10748 10748 10748 10748 10747 10747 10746 10745 10744 10744 10743 10742 10741 10740 10738 10736 10735 10734 10733 10732 10730 10729 10727 10725 10724 10723 10722 10721 10720 10718 10717 10715 10714 10712 10711 10709 10708 10706 10704 10702 10701 10699 10698 10696 10694 10692 10690 10688 10686 10684 10682 10680 10678 10676 10674 10672 10670 10668 10666 10664 10662 10659 10657 10655 10652 10650 10648 10645 10643 10640 10637 10635 10632 10630 10627 10624 10621
10748 10748 10747 10748 10748 10747 10747 10747 10747 10747 10747 10746 10746 10746 10745 10744 10743 10743 10742 10741 10740 10739 10739 10737 10735 10734 10731 10730 10729 10728 10726 10725 10723 10722 10720 10719 10718 10717 10715 10714 10713 10711 10710 10708 10707 10705 10704 10702 10700 10699 10697 10695 10694 10692 10691 10689 10687 10685 10683 10681 10679 10676 10674 10672 10670 10668 10666 10664 10662 10660 10657 10655 10653 10650 10648 10646 10644 10642 10639 10636 10633 10631 10628 10625 10622 10620
10746 10746 10746 10746 10746 10746 10746 10746 10746 10746 10745 10745 10745 10744 10743 10743 10742 10741 10740 10739 10738 10737 10737 10736 10734 10733 10731 10728 10727 10726 10724 10722 10721 10719 10718 10717 10715 10714 10712 10711 10710 10708 10707 10706 10704 10702 10701 10699 10698 10696 10694 10693 10691 10690 10688 10686 10684 10682 10680 10678 10676 10674 10672 10670 10668 10666 10664 10662 10660 10658 10656 10653 10651 10648 10646 10644 10642 10639 10637 10634 10631 10628 10625 10623 10620 10617
10744 10743 10743 10743 10743 10743 10743 10743 10744 10744 10744 10744 10744 10742 10742 10741 10740 10739 10739 10738 10737 10735 10734 10733 10732 10731 10730 10727 10725 10724 10722 10720 10718 10717 10716 10714 10713 10711 10710 10708 10707 10706 10704 10703 10701 10700 10698 10696 10694 10693 10691 10690 10688 10687 10685 10683 10682 10680 10678 10676 10674 10672 10670 10668 10666 10663 10661 10659 10658 10656 10653 10651 10648 10646 10643 10641 10638 10636 10634 10631 10628 10626 10623 10620 10617 10614
10741 10740 10740 10740 10740 10740 10741 10740 10740 10741 10742 10742 10741 10740 10740 10740 10738 10737 10737 10736 10735 10733 10732 10731 10729 10728 10727 10725 10723 10721 10719 10717 10716 10715 10713 10712 10710 10709 10707 10706 10704 10703 10701 10700 10699 10697 10695 10693 10691 10690 10689 10687 10685 10683 10682 10680 10679 10677 10675 10673 10671 10669 10667 10664 10662 10661 10658 10656 10654 10652 10650 10648 10645 10643 10640 10637 10635 10633 10630 10628 10625 10622 10619 10617 10614 10612
10737 10737 10737 10737 10736 10737 10738 10737 10736 10737 10739 10739 10738 10736 10736 10737 10735 10734 10734 10733 10732 10730 10728 10727 10726 10725 10724 10723 10721 10719 10717 10715 10713 10712 10711 10709 10707 10705 10704 10703 10702 10700 10698 10697 10696 10694 10693 10691 10689 10687 10686 10684 10682 10681 10679 10677 10675 10673 10672 10670 10668 10666 10664 10661 10659 10657 10655 10653 10651 10649 10647 10645 10642 10639 10636 10634 10632 10629 10627 10624 10622 10619 10616 10613 10611 10608
10734 10733 10734 10734 10733 10732 10734 10735 10733 10733 10735 10736 10735 10733 10732 10732 10731 10731 10730 10730 10729 10727 10725 10723 10723 10722 10721 10719 10718 10716 10714 10712 10711 10710 10708 10706 10704 10702 10701 10699 10698 10697 10695 10693 10692 10691 10689 10688 10686 10685 10683 10681 10680 10678 10676 10674 10672 10670 10668 10666 10665 10662 10660 10658 10656 10653 10651 10649 10648 10646 10643 10641 10639 10636 10633 10630 10627 10625 10623 10621 10618 10616 10613 10610 10607 10604
10730 10730 10730 10730 10730 10729 10729 10731 10730 10729 10730 10731 10731 10729 10727 10727 10727 10727 10726 10726 10725 10723 10720 10719 10719 10718 10717 10716 10714 10712 10711 10710 10709 10708 10706 10703 10701 10699 10698 10696 10694 10693 10691 10690 10688 10686 10685 10684 10683 10681 10680 10678 10677 10675 10673 10671 10670 10668 10665 10663 10661 10660 10657 10654 10652 10650 10647 10645 10643 10642 10640 10638 10635 10632 10629 10626 10623 10620 10618 10616 10614 10611 10609 10606 10604 10601
10726 10726 10726 10726 10726 10725 10725 10726 10727 10726 10725 10727 10728 10725 10722 10723 10724 10722 10721 10722 10723 10720 10716 10715 10715 10713 10712 10711 10710 10708 10707 10707 10707 10706 10703 10700 10698 10697 10694 10692 10690 10689 10687 10686 10684 10682 10681 10680 10678 10677 10676 10674 10673 10672 10670 10668 10666 10664 10662 10660 10658 10656 10654 10651 10649 10647 10644 10641 10639 10637 10635 10633 10631 10628 10625 10622 10619 10616 10613 10611 10609 10606 10603 10601 10599 10597
10722 10722 10722 10722 10721 10721 10721 10721 10722 10722 10721 10723 10724 10720 10717 10718 10720 10718 10716 10717 10718 10715 10712 10712 10712 10710 10707 10706 10704 10703 10702 10703 10703 10702 10699 10696 10695 10694 10691 10689 10687 10685 10683 10681 10679 10678 10676 10675 10674 10673 10672 10670 10669 10667 10666 10664 10662 10660 10658 10656 10654 10652 10649 10647 10644 10642 10640 10637 10635 10633 10630 10628 10625 10623 10620 10617 10614 10612 10609 10607 10604 10601 10598 10595 10592 10590
10718 10716 10717 10718 10716 10716 10716 10716 10718 10718 10716 10718 10720 10716 10712 10714 10715 10713 10712 10713 10713 10710 10708 10708 10707 10705 10703 10701 10699 10697 10697 10698 10698 10697 10694 10692 10690 10689 10687 10685 10683 10681 10679 10677 10675 10674 10672 10671 10670 10669 10667 10666 10664 10662 10660 10659 10657 10655 10653 10651 10649 10647 10645 10642 10639 10637 10635 10632 10630 10628 10625 10623 10621 10618 10616 10613 10610 10607 10604 10602 10599 10597 10594 10591 10588 10584
10713 10712 10712 10713 10712 10711 10712 10712 10713 10713 10711 10713 10715 10711 10708 10709 10709 10708 10708 10708 10707 10706 10705 10704 10702 10700 10699 10697 10694 10692 10691 10692 10693 10691 10690 10689 10687 10684 10683 10681 10679 10677 10675 10673 10671 10670 10668 10667 10665 10664 10662 10661 10659 10657 10654 10653 10651 10649 10647 10645 10643 10642 10640 10636 10633 10632 10630 10627 10625 10623 10620 10617 10615 10613 10611 10609 10606 10603 10600 10597 10594 10591 10588 10586 10583 10580
10707 10707 10707 10707 10706 10706 10707 10707 10707 10707 10706 10707 10708 10705 10703 10704 10704 10703 10702 10702 10701 10700 10700 10699 10697 10696 10695 10691 10689 10687 10686 10686 10686 10685 10685 10685 10683 10681 10679 10677 10675 10673 10671 10669 10667 10665 10664 10662 10660 10659 10657 10656 10654 10652 10649 10647 10644 10642 10641 10638 10637 10636 10635 10631 10628 10626 10624 10621 10619 10617 10614 10612 10609 10606 10604 10602 10599 10596 10593 10590 10588 10585 10582 10580 10577 10575
10699 10700 10702 10702 10702 10701 10700 10702 10702 10701 10701 10702 10701 10699 10698 10697 10697 10698 10696 10695 10695 10695 10694 10692 10691 10691 10689 10686 10684 10682 10681 10681 10680 10678 10678 10678 10677 10677 10675 10672 10670 10668 10666 10665 10663 10661 10659 10656 10654 10653 10652 10650 10649 10647 10645 10642 10638 10636 10634 10632 10630 10630 10629 10625 10622 10619 10616 10614 10612 10610 10608 10605 10603 10601 10598 10595 10593 10590 10587 10584 10581 10578 10576 10573 10571 10568
10695 10696 10697 10697 10696 10695 10695 10696 10697 10696 10696 10695 10694 10694 10693 10690 10690 10691 10689 10688 10689 10689 10687 10686 10684 10684 10682 10681 10679 10677 10675 10674 10674 10672 10670 10669 10669 10669 10668 10666 10665 10663 10661 10659 10657 10656 10655 10652 10649 10647 10646 10644 10643 10641 10639 10637 10633 10630 10627 10625 10625 10624 10622 10620 10617 10613 10609 10607 10605 10603 10601 10598 10597 10595 10592 10589 10587 10584 10580 10578 10575 10572 10569 10567 10564 10562
10691 10693 10694 10692 10691 10690 10690 10691 10691 10692 10692 10690 10687 10688 10688 10685 10684 10685 10683 10682 10682 10682 10680 10679 10678 10677 10676 10674 10673 10672 10669 10668 10667 10666 10664 10662 10661 10660 10659 10658 10658 10656 10654 10653 10651 10649 10648 10646 10644 10642 10640 10638 10637 10635 10633 10631 10629 10625 10621 10618 10617 10617 10616 10613 10611 10607 10604 10600 10598 10596 10594 10592 10590 10588 10586 10583 10580 10577 10574 10571 10569 10566 10563 10560 10557 10555
10686 10688 10689 10688 10687 10686 10685 10685 10685 10686 10687 10685 10683 10683 10683 10681 10679 10679 10678 10677 10677 10676 10675 10674 10673 10672 10671 10669 10667 10666 10665 10663 10661 10660 10658 10656 10655 10654 10652 10650 10649 10648 10647 10645 10643 10642 10641 10639 10637 10635 10633 10631 10630 10628 10626 10625 10623 10620 10616 10613 10611 10609 10608 10607 10604 10601 10597 10594 10591 10589 10587 10585 10583 10581 10579 10576 10573 10569 10566 10563 10561 10559 10556 10553 10550 10548
10682 10682 10683 10683 10682 10682 10680 10679 10679 10680 10681 10680 10678 10677 10678 10678 10676 10674 10673 10672 10672 10671 10670 10669 10668 10668 10666 10664 10663 10661 10660 10658 10657 10655 10654 10651 10649 10648 10647 10645 10643 10641 10640 10638 10636 10634 10632 10631 10629 10627 10626 10624 10622 10621 10619 10617 10616 10613 10610 10607 10605 10602 10600 10599 10598 10594 10591 10587 10584 10582 10579 10578 10575 10573 10571 10569 10566 10563 10559 10556 10553 10550 10547 10545 10542 10540
10677 10677 10679 10678 10676 10676 10676 10674 10673 10674 10675 10675 10674 10672 10672 10672 10672 10671 10669 10666 10665 10665 10665 10663 10663 10663 10661 10660 10658 10656 10655 10653 10652 10650 10649 10647 10645 10643 10642 10640 10638 10636 10634 10632 10630 10628 10626 10624 10621 10620 10619 10617 10615 10613 10610 10609 10608 10606 10604 10601 10598 10596 10594 10592 10590 10588 10584 10580 10578 10575 10573 10570 10568 10564 10561 10559 10557 10555 10552 10549 10546 10543 10540 10538 10535 10532
10672 10672 10673 10672 10670 10670 10672 10670 10667 10667 10668 10669 10668 10668 10667 10665 10665 10666 10665 10662 10660 10660 10660 10659 10657 10656 10656 10655 10653 10652 10649 10647 10646 10645 10643 10642 10640 10638 10636 10635 10632 10630 10629 10626 10624 10622 10621 10619 10616 10614 10612 10611 10608 10605 10603 10601 10599 10598 10596 10594 10592 10590 10588 10586 10583 10580 10577 10573 10570 10568 10566 10564 10561 10557 10553 10550 10547 10545 10544 10541 10538 10535 10531 10529 10527 10524
10666 10667 10666 10665 10665 10665 10666 10665 10663 10662 10662 10661 10661 10662 10661 10660 10660 10660 10659 10657 10655 10655 10655 10654 10653 10650 10650 10649 10647 10646 10644 10642 10640 10639 10637 10636 10634 10632 10630 10629 10627 10625 10623 10621 10619 10616 10615 10614 10611 10608 10606 10604 10602 10599 10596 10594 10592 10590 10588 10586 10584 10582 10580 10578 10576 10573 10570 10567 10564 10560 10558 10556 10554 10551 10547 10542 10539 10537 10535 10533 10530 10528 10524 10521 10519 10516
10661 10661 10659 10659 10660 10660 10659 10659 10659 10658 10656 10655 10656 10655 10653 10652 10653 10654 10652 10650 10650 10650 10649 10648 10647 10645 10644 10643 10641 10640 10638 10636 10634 10633 10631 10630 10628 10626 10624 10622 10620 10618 10617 10615 10613 10610 10608 10607 10606 10603 10600 10597 10594 10593 10590 10587 10584 10582 10580 10578 10576 10575 10572 10569 10566 10563 10561 10560 10557 10554 10550 10548 10546 10543 10540 10536 10533 10529 10527 10525 10523 10521 10518 10515 10512 10510
10655 10654 10653 10653 10655 10654 10652 10652 10653 10653 10650 10648 10650 10650 10647 10645 10646 10647 10645 10643 10644 10645 10643 10641 10640 10638 10637 10637 10635 10634 10632 10630 10628 10627 10625 10623 10621 10619 10618 10616 10613 10611 10609 10608 10606 10604 10601 10599 10598 10596 10594 10590 10587 10584 10582 10580 10577 10574 10572 10571 10569 10567 10565 10562 10558 10554 10552 10550 10549 10546 10543 10540 10537 10535 10532 10529 10526 10523 10520 10517 10514 10512 10510 10506 10503 10502
10649 10648 10647 10647 10648 10647 10645 10644 10645 10646 10644 10642 10642 10642 10640 10639 10638 10639 10637 10636 10637 10637 10635 10633 10632 10632 10631 10630 10628 10627 10626 10624 10622 10620 10619 10617 10614 10612 10610 10608 10607 10605 10602 10600 10599 10598 10595 10592 10590 10588 10587 10584 10581 10578 10574 10571 10569 10566 10564 10563 10562 10560 10557 10555 10552 10548 10544 10541 10540 10538 10535 10532 10529 10526 10523 10520 10517 10515 10514 10511 10507 10505 10503 10499 10495 10492